Regional Weather Roundup
Issued by NWS

Home | Current Version | Previous Version | Graphics & Text | Print | Product List | Glossary Off
Versions: 1 2 3 4 5 6 7 8 9 10 11 12 13 14 15 16 17 18 19 20 21 22 23 24 25 26 27 28 29 30 31 32 33 34 35 36 37 38 39 40 41 42 43 44 45 46 47 48 49 50

000
ASUS45 KABQ 230910
RWRNM
NEW MEXICO REGIONAL WEATHER ROUNDUP
NATIONAL WEATHER SERVICE ALBUQUERQUE NM
300 AM MDT FRI JUN 23 2017

NOTE: "FAIR" MEANS FEW OR NO CLOUDS BELOW 12,000 FEET AGL WITH NO
       SIGNIFICANT WEATHER OR OBSTRUCTIONS TO VISION.

      THIS PRODUCT IS RELEASED AS TWO VERSIONS.  ONE VERSION NEAR
      THE TOP OF THE HOUR CONTAINING PRELIMINARY DATA FROM ALBUQUERQUE
      AND OTHER STATIONS.  A FINAL VERSION WITH ADDITIONAL DATA IS
      ISSUED ABOUT 10 MINUTES AFTER THE HOUR.

NMZ501-503-504-510>518-231000-
NORTHWEST PLATEAU/NORTHCENTRAL MOUNTAINS

CITY           SKY/WX    TMP DP  RH WIND       PRES   REMARKS
FARMINGTON     FAIR      68  26  20 W7        30.00R
LOS ALAMOS     FAIR      73  15  11 N9        30.12F
SANTA FE       FAIR      62  28  27 S3        30.05R
TAOS           FAIR      61  30  31 NE8       30.15S
ANGEL FIRE     FAIR      44  37  76 E3        30.28F

$$
NMZ402-403-502-505>509-231000-
WESTCENTRAL MOUNTAINS/SOUTHWEST MOUNTAINS

CITY           SKY/WX    TMP DP  RH WIND       PRES   REMARKS
GALLUP         FAIR      53  24  32 E6        30.13R
GRANTS         FAIR      54  18  24 NW5       30.13R
SILVER CITY    FAIR      79  40  24 NW14      30.00S

$$
NMZ407-409-411-412-231000-
SOUTHERN DESERTS

CITY           SKY/WX    TMP DP  RH WIND       PRES   REMARKS
DEMING         FAIR      84  39  20 SW8       29.90S
LAS CRUCES     FAIR      88  34  14 W13       29.88R
HOLLOMAN AFB   FAIR      85  39  19 S13       29.83F
ALAMOGORDO     FAIR      81  37  21 E6        29.84S
T OR C         FAIR      85  28  12 NW21      29.88F

$$
NMZ519>523-231000-
CENTRAL VALLEYS/CENTRAL HIGHLANDS

CITY           SKY/WX    TMP DP  RH WIND       PRES   REMARKS
ALBUQUERQUE    FAIR      71  21  15 SE10      29.98R
DOUBLE EAGLE   FAIR      67  19  15 W10       30.00S
MORIARTY ARPT  FAIR      70  48  45 N6        30.07R
CLINES CORNERS FAIR      64  45  49 NE13      30.13S
BELEN          FAIR      73  19  13 SW10      29.96R
SOCORRO        FAIR      88  26  10 NW21G35   29.90F

$$
NMZ524>526-539-540-231000-
SOUTHCENTRAL MOUNTAINS

CITY           SKY/WX    TMP DP  RH WIND       PRES   REMARKS
RUIDOSO        FAIR      72  36  26 SW8       30.09S

$$
NMZ527>531-231000-
NORTHEAST HIGHLANDS/NORTHEAST PLAINS

CITY           SKY/WX    TMP DP  RH WIND       PRES   REMARKS
LAS VEGAS      FAIR      57  46  66 N12       30.13F
RATON          FAIR      59  48  67 NE7       30.10F
CLAYTON        FAIR      62  55  77 N10       29.99F

$$
NMZ532>537-231000-
EASTCENTRAL PLAINS

CITY           SKY/WX    TMP DP  RH WIND       PRES   REMARKS
TUCUMCARI      FAIR      68  60  75 N8        29.89R
CANNON AFB     FAIR      74  54  49 N6        29.89F
CLOVIS AIRPORT FAIR      71  57  61 NE10      29.90S

$$
NMZ028-029-538-231000-
SOUTHEAST PLAINS

CITY           SKY/WX    TMP DP  RH WIND       PRES   REMARKS
ROSWELL        FAIR      80  49  33 E6        29.79R
ARTESIA        FAIR      81  50  34 SW10      29.77F
CARLSBAD       FAIR      86  54  33 SE10      29.73S
HOBBS          FAIR      75  48  38 CALM      29.84R


$$




USA.gov is the U.S. government's official web portal to all federal, state and local government web resources and services.